| time (UTC) | temp F | wind direction | speed MPH | gust MPH | rain 1hr in | rain 24hr in | rain mn in | humidity % | barometer mb |
| 20260507140503 | 49 | 30 | 3.0 | 9.0 | 0.00 | 0.69 | 0.69 | 89 | 1011.0 |
| 20260507140002 | 49 | 67 | 3.0 | 10.0 | 0.00 | 0.69 | 0.69 | 89 | 1010.8 |
| 20260507135503 | 49 | 355 | 4.0 | 10.0 | 0.00 | 0.69 | 0.69 | 89 | 1010.8 |
| 20260507135002 | 50 | 11 | 4.0 | 11.0 | 0.00 | 0.69 | 0.69 | 89 | 1010.8 |
| 20260507134503 | 50 | 304 | 3.0 | 11.0 | 0.00 | 0.69 | 0.69 | 89 | 1010.7 |
| 20260507133503 | 50 | 295 | 3.0 | 9.0 | 0.00 | 0.69 | 0.69 | 89 | 1010.6 |
| 20260507132504 | 50 | 346 | 4.0 | 8.0 | 0.00 | 0.69 | 0.69 | 89 | 1010.5 |
| 20260507132003 | 50 | 9 | 4.0 | 9.0 | 0.00 | 0.69 | 0.69 | 89 | 1010.5 |
| 20260507131503 | 50 | 13 | 4.0 | 9.0 | 0.00 | 0.69 | 0.69 | 89 | 1010.5 |
| 20260507131002 | 50 | 22 | 3.0 | 9.0 | 0.00 | 0.69 | 0.69 | 89 | 1010.5 |
| 20260507130503 | 50 | 319 | 3.0 | 7.0 | 0.01 | 0.69 | 0.69 | 89 | 1010.4 |
| 20260507130002 | 50 | 16 | 3.0 | 8.0 | 0.01 | 0.69 | 0.69 | 89 | 1010.4 |
| 20260507125001 | 50 | 341 | 3.0 | 9.0 | 0.02 | 0.69 | 0.69 | 90 | 1010.2 |
| 20260507124502 | 50 | 321 | 3.0 | 9.0 | 0.02 | 0.69 | 0.69 | 90 | 1010.0 |
| 20260507124003 | 50 | 49 | 4.0 | 12.0 | 0.02 | 0.69 | 0.69 | 90 | 1010.0 |
| 20260507123503 | 50 | 355 | 4.0 | 12.0 | 0.04 | 0.69 | 0.69 | 90 | 1009.9 |
| 20260507123002 | 50 | 18 | 4.0 | 12.0 | 0.07 | 0.69 | 0.69 | 90 | 1010.0 |
| 20260507122502 | 51 | 36 | 5.0 | 11.0 | 0.09 | 0.69 | 0.69 | 90 | 1010.0 |
| 20260507121003 | 50 | 349 | 3.0 | 11.0 | 0.12 | 0.69 | 0.69 | 90 | 1009.6 |
| 20260507115502 | 50 | 344 | 4.0 | 11.0 | 0.13 | 0.69 | 0.69 | 90 | 1009.5 |
| 20260507115002 | 50 | 67 | 4.0 | 10.0 | 0.13 | 0.68 | 0.68 | 90 | 1009.5 |
| 20260507114502 | 49 | 339 | 4.0 | 10.0 | 0.14 | 0.68 | 0.67 | 90 | 1009.5 |
| 20260507114003 | 50 | 47 | 3.0 | 9.0 | 0.15 | 0.67 | 0.67 | 89 | 1009.5 |
| 20260507113502 | 50 | 319 | 3.0 | 11.0 | 0.13 | 0.65 | 0.65 | 89 | 1009.4 |
| 20260507113001 | 50 | 39 | 3.0 | 11.0 | 0.10 | 0.62 | 0.62 | 89 | 1009.4 |
| 20260507112505 | 51 | 44 | 4.0 | 9.0 | 0.09 | 0.60 | 0.59 | 89 | 1009.2 |
| 20260507110502 | 52 | 355 | 3.0 | 12.0 | 0.08 | 0.57 | 0.57 | 90 | 1008.7 |
| 20260507110004 | 52 | 50 | 3.0 | 8.0 | 0.08 | 0.57 | 0.57 | 90 | 1008.7 |
| 20260507105502 | 52 | 67 | 3.0 | 8.0 | 0.08 | 0.56 | 0.56 | 90 | 1008.6 |
| 20260507104004 | 52 | 89 | 3.0 | 8.0 | 0.09 | 0.52 | 0.52 | 90 | 1008.6 |
| 20260507103003 | 52 | 94 | 4.0 | 9.0 | 0.12 | 0.52 | 0.52 | 90 | 1008.5 |
| 20260507102501 | 51 | 88 | 4.0 | 9.0 | 0.12 | 0.51 | 0.51 | 90 | 1008.5 |
| 20260507101945 | 51 | 73 | 3.0 | 9.0 | 0.13 | 0.50 | 0.50 | 90 | 1008.5 |
| 20260507100931 | 51 | 101 | 4.0 | 9.0 | 0.12 | 0.50 | 0.50 | 89 | 1008.4 |
| 20260507095443 | 51 | 92 | 4.0 | 8.0 | 0.10 | 0.48 | 0.48 | 89 | 1008.4 |
| 20260507094931 | 51 | 108 | 2.0 | 6.0 | 0.10 | 0.47 | 0.47 | 89 | 1008.4 |
| 20260507093430 | 51 | 59 | 3.0 | 8.0 | 0.07 | 0.41 | 0.41 | 89 | 1008.4 |
| 20260507092931 | 51 | 0 | 4.0 | 9.0 | 0.07 | 0.40 | 0.40 | 89 | 1008.3 |
| 20260507092439 | 51 | 46 | 4.0 | 9.0 | 0.09 | 0.39 | 0.39 | 89 | 1008.3 |
| 20260507091931 | 51 | 66 | 4.0 | 8.0 | 0.07 | 0.38 | 0.38 | 89 | 1008.2 |
| 20260507091430 | 52 | 52 | 4.0 | 10.0 | 0.07 | 0.38 | 0.38 | 89 | 1008.0 |
| 20260507090931 | 52 | 50 | 4.0 | 10.0 | 0.07 | 0.38 | 0.38 | 89 | 1008.0 |
| 20260507090430 | 52 | 55 | 4.0 | 8.0 | 0.08 | 0.38 | 0.38 | 89 | 1007.8 |
| 20260507085931 | 52 | 62 | 4.0 | 10.0 | 0.08 | 0.38 | 0.38 | 89 | 1007.7 |
| 20260507085430 | 52 | 74 | 4.0 | 10.0 | 0.09 | 0.38 | 0.38 | 89 | 1007.6 |
| 20260507084930 | 52 | 84 | 3.0 | 8.0 | 0.08 | 0.37 | 0.37 | 89 | 1007.7 |
| 20260507084430 | 52 | 83 | 3.0 | 8.0 | 0.09 | 0.37 | 0.36 | 89 | 1007.6 |
| 20260507083931 | 51 | 78 | 3.0 | 6.0 | 0.07 | 0.35 | 0.35 | 89 | 1007.6 |
| 20260507083430 | 52 | 76 | 2.0 | 6.0 | 0.06 | 0.34 | 0.34 | 89 | 1007.5 |
| 20260507082429 | 51 | 75 | 3.0 | 7.0 | 0.02 | 0.31 | 0.31 | 89 | 1007.4 |
| 20260507081930 | 52 | 63 | 3.0 | 6.0 | 0.02 | 0.31 | 0.31 | 89 | 1007.4 |
| 20260507080932 | 52 | 55 | 2.0 | 6.0 | 0.02 | 0.31 | 0.30 | 89 | 1007.3 |
| 20260507080430 | 52 | 68 | 2.0 | 6.0 | 0.02 | 0.30 | 0.30 | 89 | 1007.2 |
| 20260507075430 | 52 | 86 | 3.0 | 8.0 | 0.01 | 0.30 | 0.29 | 89 | 1007.2 |
| 20260507074431 | 52 | 67 | 2.0 | 5.0 | 0.00 | 0.29 | 0.28 | 89 | 1007.1 |
| 20260507073932 | 52 | 65 | 3.0 | 8.0 | 0.00 | 0.29 | 0.28 | 89 | 1007.1 |
| 20260507073430 | 52 | 85 | 4.0 | 8.0 | 0.00 | 0.29 | 0.28 | 89 | 1007.0 |
| 20260507072933 | 52 | 42 | 3.0 | 8.0 | 0.00 | 0.29 | 0.28 | 89 | 1006.9 |
| 20260507072430 | 52 | 50 | 3.0 | 6.0 | 0.00 | 0.29 | 0.28 | 90 | 1006.9 |
| 20260507071430 | 52 | 35 | 3.0 | 8.0 | 0.00 | 0.29 | 0.28 | 90 | 1006.8 |
| 20260507070431 | 52 | 58 | 4.0 | 8.0 | 0.00 | 0.29 | 0.28 | 90 | 1006.8 |
| 20260507064932 | 53 | 20 | 2.0 | 6.0 | 0.00 | 0.29 | 0.28 | 90 | 1006.8 |
| 20260507063932 | 52 | 348 | 3.0 | 6.0 | 0.00 | 0.29 | 0.28 | 90 | 1006.6 |
| 20260507063432 | 52 | 9 | 2.0 | 6.0 | 0.00 | 0.29 | 0.28 | 90 | 1006.6 |
| 20260507061933 | 52 | 300 | 2.0 | 4.0 | 0.01 | 0.29 | 0.28 | 91 | 1006.5 |
| 20260507060946 | 52 | 250 | 1.0 | 3.0 | 0.01 | 0.29 | 0.28 | 91 | 1006.5 |
| 20260507060431 | 52 | 322 | 2.0 | 4.0 | 0.01 | 0.29 | 0.28 | 91 | 1006.4 |
| 20260507055430 | 52 | 313 | 1.0 | 3.0 | 0.02 | 0.29 | 0.28 | 91 | 1006.4 |
| 20260507054933 | 52 | 304 | 2.0 | 3.0 | 0.02 | 0.29 | 0.28 | 91 | 1006.2 |
| 20260507054430 | 52 | 300 | 2.0 | 3.0 | 0.02 | 0.29 | 0.28 | 91 | 1006.1 |
| 20260507053932 | 51 | 296 | 1.0 | 3.0 | 0.03 | 0.29 | 0.28 | 91 | 1006.1 |
| 20260507053430 | 51 | 295 | 0.0 | 1.0 | 0.03 | 0.29 | 0.28 | 91 | 1006.1 |
| 20260507051932 | 51 | 296 | 0.0 | 2.0 | 0.03 | 0.28 | 0.28 | 91 | 1006.1 |
| 20260507051430 | 51 | 296 | 0.0 | 2.0 | 0.03 | 0.28 | 0.28 | 90 | 1006.0 |
| 20260507050931 | 51 | 296 | 1.0 | 2.0 | 0.03 | 0.28 | 0.28 | 90 | 1006.0 |
| 20260507050431 | 51 | 296 | 0.0 | 1.0 | 0.03 | 0.28 | 0.28 | 90 | 1006.0 |
| 20260507045931 | 51 | 296 | 0.0 | 1.0 | 0.03 | 0.28 | 0.27 | 90 | 1006.0 |
| 20260507045430 | 51 | 296 | 0.0 | 1.0 | 0.03 | 0.28 | 0.27 | 90 | 1006.0 |
| 20260507044931 | 51 | 296 | 0.0 | 1.0 | 0.03 | 0.28 | 0.27 | 90 | 1005.8 |
| 20260507043908 | 51 | 296 | 0.0 | 2.0 | 0.03 | 0.26 | 0.25 | 90 | 1005.7 |
| 20260507043406 | 51 | 296 | 1.0 | 2.0 | 0.04 | 0.26 | 0.25 | 90 | 1005.6 |
| 20260507042905 | 51 | 296 | 1.0 | 2.0 | 0.04 | 0.25 | 0.24 | 90 | 1005.6 |
| 20260507042402 | 51 | 296 | 1.0 | 2.0 | 0.05 | 0.25 | 0.24 | 90 | 1005.7 |
| 20260507041905 | 51 | 296 | 0.0 | 2.0 | 0.06 | 0.25 | 0.24 | 90 | 1005.7 |
| 20260507041402 | 51 | 294 | 0.0 | 1.0 | 0.06 | 0.25 | 0.24 | 90 | 1005.6 |
| 20260507035905 | 51 | 294 | 0.0 | 1.0 | 0.06 | 0.24 | 0.24 | 90 | 1005.4 |
| 20260507035402 | 51 | 294 | 0.0 | 1.0 | 0.06 | 0.24 | 0.24 | 90 | 1005.6 |
| 20260507034904 | 51 | 294 | 0.0 | 2.0 | 0.06 | 0.24 | 0.23 | 90 | 1005.4 |
| 20260507033904 | 51 | 294 | 0.0 | 2.0 | 0.06 | 0.23 | 0.22 | 90 | 1005.4 |
| 20260507033402 | 51 | 295 | 0.0 | 0.0 | 0.06 | 0.22 | 0.21 | 90 | 1005.4 |
| 20260507032905 | 51 | 295 | 0.0 | 1.0 | 0.06 | 0.21 | 0.20 | 90 | 1005.4 |
| 20260507031905 | 51 | 294 | 1.0 | 3.0 | 0.06 | 0.20 | 0.19 | 90 | 1005.4 |
| 20260507031402 | 51 | 294 | 1.0 | 3.0 | 0.06 | 0.20 | 0.19 | 90 | 1005.4 |
| 20260507030904 | 51 | 294 | 1.0 | 3.0 | 0.07 | 0.20 | 0.18 | 90 | 1005.4 |
| 20260507030402 | 51 | 294 | 1.0 | 3.0 | 0.08 | 0.19 | 0.18 | 90 | 1005.3 |
| 20260507025903 | 51 | 296 | 1.0 | 3.0 | 0.08 | 0.18 | 0.17 | 90 | 1005.2 |
| 20260507025402 | 51 | 296 | 1.0 | 3.0 | 0.08 | 0.18 | 0.17 | 89 | 1005.2 |
| 20260507024402 | 51 | 40 | 0.0 | 1.0 | 0.07 | 0.17 | 0.17 | 89 | 1005.1 |
| 20260507023904 | 51 | 41 | 1.0 | 4.0 | 0.07 | 0.17 | 0.16 | 89 | 1005.1 |
| 20260507023402 | 51 | 42 | 2.0 | 4.0 | 0.06 | 0.16 | 0.15 | 89 | 1005.0 |
| 20260507022918 | 51 | 74 | 2.0 | 4.0 | 0.05 | 0.15 | 0.14 | 89 | 1005.0 |
| 20260507022402 | 51 | 53 | 1.0 | 4.0 | 0.04 | 0.14 | 0.13 | 89 | 1005.0 |
| 20260507021904 | 51 | 317 | 1.0 | 3.0 | 0.03 | 0.13 | 0.13 | 89 | 1005.0 |
| 20260507021402 | 51 | 315 | 1.0 | 3.0 | 0.04 | 0.13 | 0.12 | 89 | 1005.1 |
| 20260507020905 | 51 | 315 | 1.0 | 3.0 | 0.04 | 0.13 | 0.11 | 89 | 1005.0 |
| 20260507015402 | 51 | 315 | 0.0 | 2.0 | 0.06 | 0.10 | 0.09 | 89 | 1005.2 |
| 20260507013401 | 51 | 314 | 0.0 | 2.0 | 0.09 | 0.10 | 0.09 | 88 | 1005.1 |
| 20260507012904 | 51 | 315 | 0.0 | 2.0 | 0.09 | 0.10 | 0.09 | 88 | 1005.0 |
| 20260507012402 | 51 | 315 | 0.0 | 2.0 | 0.09 | 0.10 | 0.09 | 88 | 1005.0 |
| 20260507011904 | 51 | 314 | 0.0 | 2.0 | 0.09 | 0.10 | 0.09 | 88 | 1004.9 |
| 20260507011401 | 51 | 315 | 1.0 | 4.0 | 0.09 | 0.09 | 0.09 | 88 | 1004.9 |
| 20260507010904 | 51 | 315 | 2.0 | 4.0 | 0.08 | 0.09 | 0.08 | 88 | 1004.9 |
| 20260507010401 | 51 | 313 | 2.0 | 4.0 | 0.07 | 0.08 | 0.07 | 88 | 1004.9 |
| 20260507005904 | 51 | 294 | 2.0 | 6.0 | 0.06 | 0.07 | 0.06 | 88 | 1004.9 |
| 20260507005403 | 51 | 290 | 2.0 | 6.0 | 0.04 | 0.05 | 0.04 | 88 | 1005.0 |
| 20260507004904 | 51 | 254 | 2.0 | 4.0 | 0.03 | 0.04 | 0.02 | 88 | 1005.0 |
| 20260507003904 | 51 | 175 | 0.0 | 2.0 | 0.02 | 0.02 | 0.02 | 87 | 1004.7 |
| 20260507002905 | 51 | 175 | 1.0 | 3.0 | 0.01 | 0.02 | 0.01 | 87 | 1004.7 |
| 20260507002402 | 51 | 173 | 1.0 | 4.0 | 0.01 | 0.02 | 0.01 | 87 | 1004.7 |
| 20260507001904 | 52 | 171 | 1.0 | 6.0 | 0.00 | 0.01 | 0.00 | 87 | 1004.7 |
| 20260507001402 | 52 | 159 | 1.0 | 6.0 | 0.00 | 0.01 | 0.00 | 87 | 1004.6 |
| 20260507000405 | 52 | 140 | 2.0 | 5.0 | 0.00 | 0.01 | 0.00 | 87 | 1004.5 |
| 20260506235903 | 52 | 144 | 2.0 | 4.0 | 0.00 | 0.01 | 0.00 | 87 | 1004.5 |
| 20260506235401 | 52 | 142 | 2.0 | 5.0 | 0.00 | 0.01 | 0.00 | 87 | 1004.5 |
| 20260506234903 | 52 | 146 | 2.0 | 5.0 | 0.00 | 0.01 | 0.00 | 86 | 1004.5 |
| 20260506234402 | 52 | 128 | 1.0 | 4.0 | 0.00 | 0.01 | 0.00 | 86 | 1004.5 |
| 20260506233402 | 52 | 101 | 2.0 | 6.0 | 0.00 | 0.01 | 0.00 | 86 | 1004.3 |
| 20260506231903 | 52 | 99 | 3.0 | 7.0 | 0.00 | 0.01 | 0.00 | 86 | 1004.3 |
| 20260506230903 | 52 | 100 | 2.0 | 6.0 | 0.00 | 0.01 | 0.00 | 86 | 1004.3 |
| 20260506230403 | 52 | 124 | 1.0 | 6.0 | 0.00 | 0.01 | 0.00 | 86 | 1004.3 |
| 20260506225903 | 52 | 125 | 2.0 | 6.0 | 0.00 | 0.01 | 0.00 | 86 | 1004.3 |
| 20260506224904 | 52 | 106 | 3.0 | 6.0 | 0.00 | 0.01 | 0.00 | 86 | 1004.2 |
| 20260506223904 | 52 | 102 | 2.0 | 5.0 | 0.00 | 0.01 | 0.00 | 86 | 1004.1 |
| 20260506223402 | 52 | 59 | 2.0 | 5.0 | 0.00 | 0.01 | 0.00 | 86 | 1004.2 |
| 20260506222402 | 52 | 57 | 2.0 | 8.0 | 0.00 | 0.01 | 0.00 | 87 | 1004.2 |
| 20260506221402 | 52 | 70 | 3.0 | 9.0 | 0.00 | 0.02 | 0.00 | 87 | 1004.3 |
| 20260506220903 | 52 | 19 | 3.0 | 11.0 | 0.00 | 0.02 | 0.00 | 86 | 1004.4 |
| 20260506215903 | 52 | 49 | 5.0 | 12.0 | 0.00 | 0.05 | 0.05 | 86 | 1004.3 |
| 20260506215401 | 53 | 32 | 5.0 | 12.0 | 0.00 | 0.06 | 0.05 | 86 | 1004.2 |
| 20260506214902 | 53 | 329 | 5.0 | 13.0 | 0.00 | 0.08 | 0.05 | 86 | 1004.4 |
| 20260506214401 | 53 | 24 | 5.0 | 14.0 | 0.00 | 0.09 | 0.05 | 86 | 1004.3 |
| 20260506213902 | 53 | 19 | 4.0 | 14.0 | 0.00 | 0.11 | 0.05 | 86 | 1004.3 |
| 20260506213402 | 53 | 39 | 3.0 | 10.0 | 0.00 | 0.13 | 0.05 | 86 | 1004.3 |
| 20260506212903 | 54 | 9 | 3.0 | 8.0 | 0.00 | 0.15 | 0.05 | 86 | 1004.3 |
| 20260506211402 | 55 | 235 | 5.0 | 11.0 | 0.00 | 0.20 | 0.05 | 86 | 1004.1 |
| 20260506210903 | 55 | 296 | 6.0 | 13.0 | 0.00 | 0.22 | 0.05 | 86 | 1004.0 |
| 20260506210403 | 55 | 268 | 4.0 | 13.0 | 0.00 | 0.24 | 0.05 | 86 | 1004.0 |
| 20260506205402 | 56 | 80 | 2.0 | 7.0 | 0.00 | 0.28 | 0.05 | 86 | 1003.7 |
| 20260506204902 | 56 | 78 | 3.0 | 7.0 | 0.00 | 0.29 | 0.05 | 86 | 1003.7 |
| 20260506204401 | 56 | 82 | 4.0 | 8.0 | 0.00 | 0.30 | 0.05 | 86 | 1003.6 |
| 20260506203402 | 56 | 97 | 2.0 | 7.0 | 0.00 | 0.36 | 0.05 | 86 | 1003.8 |
| 20260506202902 | 56 | 267 | 2.0 | 5.0 | 0.00 | 0.61 | 0.05 | 86 | 1003.8 |
| 20260506202402 | 56 | 46 | 2.0 | 5.0 | 0.00 | 0.97 | 0.05 | 85 | 1003.7 |
| 20260506201901 | 56 | 44 | 1.0 | 5.0 | 0.00 | 1.06 | 0.05 | 85 | 1003.9 |
| 20260506195902 | 56 | 192 | 0.0 | 3.0 | 0.00 | 1.06 | 0.05 | 85 | 1003.4 |
| 20260506195402 | 56 | 111 | 0.0 | 1.0 | 0.00 | 1.06 | 0.05 | 84 | 1003.3 |
| 20260506194902 | 56 | 111 | 0.0 | 1.0 | 0.00 | 1.06 | 0.05 | 84 | 1003.3 |
| 20260506194402 | 56 | 111 | 1.0 | 4.0 | 0.00 | 1.06 | 0.05 | 84 | 1003.3 |
| 20260506193903 | 57 | 111 | 2.0 | 5.0 | 0.00 | 1.07 | 0.05 | 84 | 1003.3 |
| 20260506193404 | 57 | 121 | 2.0 | 8.0 | 0.00 | 1.11 | 0.05 | 84 | 1003.3 |
| 20260506192403 | 57 | 74 | 2.0 | 8.0 | 0.00 | 1.23 | 0.05 | 83 | 1003.3 |
| 20260506191902 | 57 | 43 | 1.0 | 8.0 | 0.00 | 1.23 | 0.05 | 83 | 1003.4 |
| 20260506190403 | 58 | 28 | 4.0 | 8.0 | 0.00 | 1.23 | 0.05 | 82 | 1002.8 |
| 20260506185902 | 58 | 84 | 3.0 | 8.0 | 0.00 | 1.23 | 0.05 | 82 | 1002.6 |
| 20260506185403 | 58 | 19 | 3.0 | 9.0 | 0.00 | 1.23 | 0.05 | 81 | 1002.6 |
| 20260506184902 | 58 | 74 | 3.0 | 9.0 | 0.00 | 1.23 | 0.05 | 81 | 1002.5 |
| 20260506183902 | 58 | 45 | 3.0 | 8.0 | 0.00 | 1.23 | 0.05 | 79 | 1002.4 |
| 20260506183403 | 57 | 63 | 2.0 | 8.0 | 0.00 | 1.23 | 0.05 | 79 | 1002.4 |
| 20260506182902 | 56 | 225 | 0.0 | 3.0 | 0.00 | 1.23 | 0.05 | 78 | 1002.3 |
| 20260506181417 | 57 | 225 | 0.0 | 0.0 | 0.00 | 1.23 | 0.05 | 77 | 1002.4 |
| 20260506180403 | 57 | 225 | 0.0 | 2.0 | 0.00 | 1.23 | 0.05 | 78 | 1002.4 |
| 20260506174845 | 58 | 224 | 0.0 | 1.0 | 0.00 | 1.24 | 0.05 | 76 | 1002.3 |
| 20260506174342 | 59 | 224 | 0.0 | 3.0 | 0.00 | 1.24 | 0.05 | 74 | 1002.3 |
| 20260506173832 | 60 | 224 | 0.0 | 3.0 | 0.00 | 1.24 | 0.05 | 71 | 1002.2 |
| 20260506173332 | 62 | 224 | 1.0 | 3.0 | 0.00 | 1.24 | 0.05 | 67 | 1002.2 |
| 20260506172832 | 63 | 223 | 2.0 | 4.0 | 0.00 | 1.24 | 0.05 | 64 | 1002.3 |
| 20260506171331 | 63 | 250 | 2.0 | 7.0 | 0.00 | 1.24 | 0.05 | 62 | 1002.1 |
| 20260506170831 | 64 | 239 | 3.0 | 7.0 | 0.00 | 1.24 | 0.05 | 63 | 1002.2 |
| 20260506165831 | 64 | 205 | 3.0 | 7.0 | 0.00 | 1.24 | 0.05 | 61 | 1002.0 |
| 20260506165332 | 64 | 210 | 2.0 | 5.0 | 0.00 | 1.24 | 0.05 | 62 | 1002.1 |
| 20260506164831 | 64 | 242 | 2.0 | 5.0 | 0.00 | 1.24 | 0.05 | 62 | 1002.1 |
| 20260506164331 | 64 | 250 | 3.0 | 6.0 | 0.00 | 1.24 | 0.05 | 62 | 1002.0 |
| 20260506163831 | 64 | 198 | 4.0 | 7.0 | 0.00 | 1.24 | 0.05 | 61 | 1002.1 |
| 20260506163331 | 64 | 201 | 4.0 | 7.0 | 0.00 | 1.24 | 0.05 | 61 | 1002.1 |
| 20260506162332 | 64 | 173 | 4.0 | 9.0 | 0.00 | 1.24 | 0.05 | 61 | 1002.1 |
| 20260506161831 | 64 | 208 | 3.0 | 6.0 | 0.00 | 1.24 | 0.05 | 60 | 1002.1 |
| 20260506161323 | 64 | 200 | 2.0 | 5.0 | 0.00 | 1.24 | 0.05 | 60 | 1002.2 |
| 20260506160819 | 64 | 239 | 2.0 | 5.0 | 0.00 | 1.24 | 0.05 | 60 | 1002.3 |
| 20260506160302 | 65 | 306 | 2.0 | 6.0 | 0.00 | 1.24 | 0.05 | 59 | 1002.3 |
| 20260506155803 | 65 | 216 | 3.0 | 7.0 | 0.00 | 1.24 | 0.05 | 60 | 1002.4 |
| 20260506155306 | 65 | 183 | 3.0 | 7.0 | 0.00 | 1.24 | 0.05 | 60 | 1002.4 |
| 20260506154803 | 65 | 230 | 3.0 | 7.0 | 0.00 | 1.24 | 0.05 | 59 | 1002.4 |
| 20260506154304 | 65 | 185 | 4.0 | 7.0 | 0.00 | 1.24 | 0.05 | 58 | 1002.5 |
| 20260506153803 | 65 | 262 | 3.0 | 7.0 | 0.00 | 1.24 | 0.05 | 59 | 1002.7 |
| 20260506153303 | 65 | 266 | 3.0 | 7.0 | 0.00 | 1.24 | 0.05 | 58 | 1002.7 |
| 20260506151802 | 65 | 196 | 4.0 | 9.0 | 0.00 | 1.24 | 0.05 | 60 | 1002.8 |
| 20260506150802 | 64 | 245 | 4.0 | 9.0 | 0.00 | 1.24 | 0.05 | 60 | 1002.9 |
| 20260506150305 | 64 | 260 | 5.0 | 9.0 | 0.00 | 1.24 | 0.05 | 60 | 1002.8 |
| 20260506145803 | 64 | 250 | 4.0 | 8.0 | 0.00 | 1.24 | 0.05 | 60 | 1002.8 |
| 20260506144802 | 65 | 237 | 6.0 | 12.0 | 0.00 | 1.24 | 0.05 | 59 | 1002.9 |
| 20260506144303 | 65 | 243 | 5.0 | 12.0 | 0.00 | 1.24 | 0.05 | 58 | 1002.9 |
| 20260506143802 | 65 | 247 | 5.0 | 11.0 | 0.00 | 1.24 | 0.05 | 58 | 1002.7 |
| 20260506143303 | 65 | 217 | 5.0 | 12.0 | 0.00 | 1.25 | 0.05 | 59 | 1003.0 |
| 20260506142305 | 65 | 216 | 5.0 | 12.0 | 0.00 | 1.25 | 0.05 | 58 | 1002.9 |
| 20260506141801 | 65 | 225 | 6.0 | 12.0 | 0.00 | 1.25 | 0.05 | 58 | 1002.8 |
| 20260506140802 | 65 | 194 | 5.0 | 10.0 | 0.00 | 1.25 | 0.05 | 58 | 1002.9 |